Location: Azul
(36.7830°S, 59.8500°W)
Time: 02:15:26
(UTC-03:00)

ISS - Pass Details

Date: 01 December 2020
Orbit: 418 x 420 km, 51.6° (Epoch: 04 December)

Event Time Altitude Azimuth Distance (km) Brightness Sun altitude
Exits shadow 03:17:41 45° 210° (SSW) 595 -2.9 -21.6°
Drops below altitude 10° 03:20:54 10° 142° (SE) 1,531 0.3 -21.2°
Sets 03:23:05 0° 135° (SE) 2,402 1.6 -20.9°
